Flag for Indonesia Weather past 2 weeks in Makassar, South Sulawesi, Indonesia

Now
84 °F

Scattered clouds.


Feels Like: 94 °F
Forecast: 76 / 88 °F
Wind: 10 mph from West

Location: Ujung Pandang / Hasanuddin

Current Time: Apr 21, 2015 at 4:56:11 PM

Latest Report: Apr 21, 2015 at 4:00 PM


Visibility: 6 mi

Pressure: 29.77 "Hg

Humidity: 79%

Dew point: 77 °F

Location of MakassarLocation

Historic Weather in Makassar — Graph

°F

Makassar temperature yesterday

Maximum temperature yesterday: 91 °F (at 12:00 PM)
Minimum temperature yesterday: 75 °F (at 2:00 AM)
Average temperature yesterday: 82 °F

Past Weeks' High & Low Weather Summary

 TemperatureHumidityPressure
High93 °F (Apr 8, 12:30 PM)100% (Apr 6, 4:30 PM)29.92 "Hg (Apr 6, 4:30 PM)
Low73 °F (Apr 8, 5:30 AM)49% (Apr 8, 11:00 AM)29.74 "Hg (Apr 8, 2:30 PM)
Average81 °F85%29.84 "Hg
* Reported Apr 6 4:00 PM — Apr 21 4:00 PM, Makassar, Weather by CustomWeather, © 2015

Note: Actual official high and low records may vary slightly from our data, if they occured in-between our weather recording intervals... More about our weather records

Advertising

Makassar weather history for previous 24 hours

 ConditionsComfort  
Time TempWeatherWind HumidityBarometerVisibility
4:00 PM
Tue, Apr 21
84 °FScattered clouds.10 mph79%29.77 "Hg6 mi
3:00 PM88 °FScattered clouds.8 mph70%29.77 "Hg6 mi
2:30 PM86 °FPassing clouds.8 mph75%29.77 "HgN/A
2:00 PM88 °FPassing clouds.9 mph70%29.77 "HgN/A
1:30 PM88 °FPassing clouds.9 mph70%29.80 "HgN/A
1:00 PM90 °FPassing clouds.9 mph63%29.80 "HgN/A
12:30 PM90 °FPassing clouds.9 mph67%29.83 "HgN/A
12:00 PM90 °FPassing clouds.7 mph63%29.83 "HgN/A
11:00 AM90 °FPassing clouds.6 mph63%29.83 "HgN/A
10:30 AM88 °FPassing clouds.6 mph66%29.86 "HgN/A
10:00 AM88 °FPassing clouds.2 mph70%29.86 "HgN/A
9:30 AM88 °FPassing clouds.2 mph70%29.86 "HgN/A
9:00 AM86 °FPassing clouds.3 mph66%29.86 "HgN/A
8:30 AM84 °FPassing clouds.3 mph70%29.86 "HgN/A
8:00 AM82 °FPassing clouds.2 mph74%29.86 "HgN/A
7:30 AM81 °FPassing clouds.3 mph79%29.86 "HgN/A
7:00 AM77 °FPassing clouds.2 mph83%29.86 "HgN/A
6:30 AM75 °FPassing clouds.1 mph89%29.83 "HgN/A
6:00 AM75 °FPassing clouds.No wind94%29.83 "HgN/A
5:00 AM75 °FPassing clouds.2 mph94%29.83 "Hg5 mi
4:30 AM75 °FPassing clouds.1 mph94%29.83 "Hg5 mi
4:00 AM75 °FPassing clouds.2 mph94%29.83 "Hg5 mi
3:30 AM75 °FMild.3 mph100%29.80 "HgN/A
3:00 AM77 °FPassing clouds.2 mph94%29.83 "Hg5 mi
2:30 AM77 °FPassing clouds.3 mph94%29.83 "Hg5 mi
2:00 AM77 °FPassing clouds.3 mph100%29.83 "Hg5 mi
1:30 AM77 °FPassing clouds.2 mph100%29.86 "Hg5 mi
1:00 AM79 °FPassing clouds.1 mph100%29.86 "Hg5 mi
12:30 AM79 °FPassing clouds.2 mph100%29.86 "Hg5 mi
12:00 AM79 °FPassing clouds.2 mph100%29.86 "Hg5 mi
11:30 PM
Mon, Apr 20
81 °FPassing clouds.3 mph94%29.86 "Hg5 mi
11:00 PM81 °FPassing clouds.1 mph94%29.86 "Hg5 mi
10:30 PM81 °FPassing clouds.2 mph94%29.86 "Hg5 mi
10:00 PM81 °FPassing clouds.2 mph94%29.86 "Hg5 mi
9:30 PM81 °FPassing clouds.2 mph94%29.86 "Hg5 mi
9:00 PM81 °FPassing clouds.2 mph100%29.86 "Hg5 mi
8:30 PM81 °FPassing clouds.2 mph94%29.86 "Hg5 mi
8:00 PM82 °FPassing clouds.3 mph89%29.86 "Hg5 mi
7:30 PM82 °FPassing clouds.3 mph89%29.83 "Hg5 mi
7:00 PM82 °FPassing clouds.2 mph89%29.83 "Hg5 mi
6:30 PM84 °FPassing clouds.3 mph79%29.83 "Hg5 mi
6:00 PM84 °FPassing clouds.3 mph79%29.80 "Hg5 mi
5:30 PM84 °FPassing clouds.3 mph79%29.77 "Hg6 mi
5:00 PM86 °FPassing clouds.5 mph75%29.77 "Hg6 mi
4:30 PM86 °FPassing clouds.5 mph75%29.77 "Hg6 mi
4:00 PM86 °FScattered clouds.8 mph75%29.74 "Hg6 mi
Weather by CustomWeather, © 2015

See weather overviewHow to use our weather pages